Location: Nairn
(57.5833°N, 3.8667°W)
Time: 02:07:58
(UTC+00:00)

SL-27 R/B - Pass Details

Date: 07 August 2020
Orbit: 419 x 471 km, 74.7° (Epoch: 19 September)

Event Time Altitude Azimuth Distance (km) Brightness Sun altitude
Exits shadow 00:07:34 23° 233° (SW) 949 3.7 -16.0°
Maximum altitude 00:09:23 54° 302° (WNW) 525 2.9 -16.0°
Drops below altitude 10° 00:12:39 10° 21° (NNE) 1,519 6.1 -16.1°
Sets 00:14:44 0° 27° (NNE) 2,387 7.2 -16.1°
